N5295M MYEH-MYEF

Flight info

Callsign N5295M
Flight time 0h 57m
Altitude 3500
Route MYEM DCT MYER DCT MYES
Aircraft M20R/L-BDFGLORWY/S

Departure

Time 2026-05-08 15:55
Airport North Eleuthera Airport (MYEH)

Arrival

Time 2026-05-08 16:52
Airport Exuma International Airport (MYEF)
Time Latitude Longitude Altitude Speed Heading
2026-05-08 15:29 25.47621 -76.68318 7 ft 0 kts 155°
2026-05-08 15:49 25.47618 -76.68317 7 ft 2 kts 154°
2026-05-08 15:49 25.47610 -76.68275 7 ft 8 kts 76°
2026-05-08 15:49 25.47602 -76.68214 8 ft 7 kts 152°
2026-05-08 15:50 25.47598 -76.68211 8 ft 0 kts 144°
2026-05-08 15:51 25.47593 -76.68206 9 ft 6 kts 121°
2026-05-08 15:52 25.47573 -76.68130 8 ft 16 kts 73°
2026-05-08 15:52 25.47619 -76.67983 10 ft 24 kts 76°
2026-05-08 15:52 25.47689 -76.67803 10 ft 25 kts 69°
2026-05-08 15:52 25.47752 -76.67630 11 ft 23 kts 67°
2026-05-08 15:53 25.47811 -76.67474 10 ft 22 kts 66°
2026-05-08 15:53 25.47864 -76.67350 9 ft 13 kts 45°
2026-05-08 15:53 25.47863 -76.67318 9 ft 7 kts 242°
2026-05-08 15:53 25.47798 -76.67497 10 ft 46 kts 248°
2026-05-08 15:54 25.47635 -76.67948 31 ft 76 kts 249°
2026-05-08 15:54 25.47447 -76.68527 197 ft 81 kts 252°
2026-05-08 15:54 25.47206 -76.69073 428 ft 84 kts 231°
2026-05-08 15:54 25.46643 -76.69401 581 ft 101 kts 193°
2026-05-08 15:55 25.45941 -76.69259 788 ft 108 kts 152°
2026-05-08 15:55 25.45029 -76.67805 995 ft 136 kts 120°
2026-05-08 15:55 25.44585 -76.66843 1023 ft 147 kts 120°
2026-05-08 15:56 25.44114 -76.65798 1067 ft 154 kts 117°
2026-05-08 15:56 25.43661 -76.64710 1118 ft 158 kts 118°
2026-05-08 15:56 25.43172 -76.63598 1117 ft 162 kts 118°
2026-05-08 15:56 25.42680 -76.62474 1122 ft 164 kts 117°
2026-05-08 15:57 25.42119 -76.61357 1092 ft 167 kts 123°
2026-05-08 15:57 25.41513 -76.60271 1140 ft 165 kts 124°
2026-05-08 15:57 25.40840 -76.59233 1142 ft 167 kts 130°
2026-05-08 15:57 25.40108 -76.58246 1180 ft 166 kts 131°
2026-05-08 15:58 25.39365 -76.57263 1192 ft 166 kts 131°
2026-05-08 15:58 25.38652 -76.56295 1237 ft 164 kts 130°
2026-05-08 15:58 25.37936 -76.55295 1220 ft 167 kts 130°
2026-05-08 15:58 25.37215 -76.54287 1230 ft 168 kts 129°
2026-05-08 15:59 25.36531 -76.53248 1286 ft 166 kts 127°
2026-05-08 15:59 25.35832 -76.52232 1326 ft 166 kts 129°
2026-05-08 15:59 25.35104 -76.51226 1326 ft 169 kts 132°
2026-05-08 15:59 25.34290 -76.50299 1351 ft 167 kts 140°
2026-05-08 16:00 25.33384 -76.49523 1440 ft 162 kts 148°
2026-05-08 16:00 25.32725 -76.48500 1334 ft 174 kts 107°
2026-05-08 16:00 25.32821 -76.47189 1338 ft 174 kts 73°
2026-05-08 16:00 25.33095 -76.45907 1396 ft 169 kts 84°
2026-05-08 16:01 25.33131 -76.44617 1430 ft 168 kts 93°
2026-05-08 16:01 25.33057 -76.43321 1431 ft 170 kts 98°
2026-05-08 16:01 25.32885 -76.42029 1448 ft 170 kts 103°
2026-05-08 16:01 25.32667 -76.40775 1465 ft 169 kts 99°
2026-05-08 16:02 25.32544 -76.39477 1462 ft 169 kts 97°
2026-05-08 16:02 25.32331 -76.38202 1465 ft 170 kts 107°
2026-05-08 16:02 25.31881 -76.37001 1428 ft 170 kts 124°
2026-05-08 16:02 25.31185 -76.35932 1103 ft 173 kts 128°
2026-05-08 16:03 25.30445 -76.34882 667 ft 173 kts 133°
2026-05-08 16:03 25.29587 -76.33965 202 ft 171 kts 144°
2026-05-08 16:03 25.28628 -76.33222 62 ft 167 kts 147°
2026-05-08 16:03 25.27693 -76.32510 268 ft 148 kts 150°
2026-05-08 16:04 25.26894 -76.31974 750 ft 132 kts 150°
2026-05-08 16:04 25.26088 -76.31438 940 ft 139 kts 150°
2026-05-08 16:04 25.25241 -76.30865 1058 ft 145 kts 150°
2026-05-08 16:04 25.24394 -76.30253 1157 ft 149 kts 144°
2026-05-08 16:05 25.23557 -76.29531 1169 ft 156 kts 143°
2026-05-08 16:05 25.22701 -76.28794 1270 ft 155 kts 143°
2026-05-08 16:05 25.21856 -76.28009 1220 ft 164 kts 139°
2026-05-08 16:05 25.21037 -76.27128 1226 ft 164 kts 137°
2026-05-08 16:06 25.20223 -76.26238 1245 ft 164 kts 136°
2026-05-08 16:06 25.19424 -76.25340 1281 ft 164 kts 135°
2026-05-08 16:06 25.18681 -76.24383 1329 ft 164 kts 130°
2026-05-08 16:06 25.17982 -76.23384 1350 ft 165 kts 130°
2026-05-08 16:07 25.17248 -76.22400 1331 ft 167 kts 130°
2026-05-08 16:07 25.16529 -76.21401 1360 ft 165 kts 130°
2026-05-08 16:07 25.15831 -76.20417 1355 ft 166 kts 130°
2026-05-08 16:07 25.15119 -76.19411 1320 ft 168 kts 128°
2026-05-08 16:08 25.14384 -76.18405 1311 ft 168 kts 134°
2026-05-08 16:08 25.13554 -76.17516 1353 ft 165 kts 140°
2026-05-08 16:08 25.12672 -76.16699 1337 ft 166 kts 143°
2026-05-08 16:08 25.11779 -76.15887 1338 ft 166 kts 141°
2026-05-08 16:09 25.10896 -76.15063 1361 ft 167 kts 141°
2026-05-08 16:09 25.10300 -76.14536 1401 ft 165 kts 144°
2026-05-08 16:09 25.09038 -76.13586 1414 ft 165 kts 149°
2026-05-08 16:09 25.08010 -76.13058 1441 ft 163 kts 169°
2026-05-08 16:10 25.06887 -76.13049 1412 ft 164 kts 189°
2026-05-08 16:10 25.05768 -76.13277 1425 ft 163 kts 191°
2026-05-08 16:10 25.04652 -76.13508 1453 ft 163 kts 192°
2026-05-08 16:10 25.03546 -76.13753 1484 ft 162 kts 193°
2026-05-08 16:11 25.02443 -76.14028 1468 ft 163 kts 195°
2026-05-08 16:11 25.01347 -76.14362 1466 ft 163 kts 197°
2026-05-08 16:11 25.00262 -76.14711 1513 ft 162 kts 198°
2026-05-08 16:11 24.99201 -76.15136 1537 ft 162 kts 201°
2026-05-08 16:12 24.98132 -76.15547 1563 ft 162 kts 199°
2026-05-08 16:12 24.97277 -76.16304 1558 ft 168 kts 236°
2026-05-08 16:12 24.96669 -76.17418 1592 ft 166 kts 239°
2026-05-08 16:12 24.96063 -76.18505 1286 ft 174 kts 237°
2026-05-08 16:13 24.95235 -76.19394 1188 ft 167 kts 199°
2026-05-08 16:13 24.94103 -76.19319 1154 ft 167 kts 160°
2026-05-08 16:13 24.93043 -76.18818 1118 ft 164 kts 163°
2026-05-08 16:13 24.91945 -76.18501 1113 ft 163 kts 169°
2026-05-08 16:14 24.90830 -76.18246 1075 ft 165 kts 168°
2026-05-08 16:14 24.89720 -76.17921 1100 ft 166 kts 165°
2026-05-08 16:14 24.88620 -76.17592 1173 ft 161 kts 166°
2026-05-08 16:14 24.87522 -76.17459 1239 ft 158 kts 183°
2026-05-08 16:15 24.86430 -76.17601 1221 ft 161 kts 189°
2026-05-08 16:15 24.85329 -76.17811 1208 ft 160 kts 191°
2026-05-08 16:15 24.84247 -76.18057 1220 ft 157 kts 192°
2026-05-08 16:15 24.83179 -76.18297 1241 ft 156 kts 192°
2026-05-08 16:16 24.82192 -76.18512 1630 ft 138 kts 191°
2026-05-08 16:16 24.81256 -76.18663 1893 ft 136 kts 188°
2026-05-08 16:16 24.80313 -76.18766 2151 ft 136 kts 187°
2026-05-08 16:16 24.79371 -76.18867 2437 ft 137 kts 188°
2026-05-08 16:17 24.78381 -76.18980 2639 ft 149 kts 188°
2026-05-08 16:17 24.77693 -76.19059 2752 ft 150 kts 188°
2026-05-08 16:17 24.76319 -76.19088 3004 ft 151 kts 177°
2026-05-08 16:17 24.75236 -76.19003 3129 ft 161 kts 178°
2026-05-08 16:18 24.74114 -76.18922 3256 ft 161 kts 178°
2026-05-08 16:18 24.73001 -76.18835 3403 ft 158 kts 178°
2026-05-08 16:18 24.71926 -76.18741 3636 ft 153 kts 177°
2026-05-08 16:18 24.70880 -76.18650 3872 ft 149 kts 177°
2026-05-08 16:19 24.69853 -76.18568 4107 ft 147 kts 178°
2026-05-08 16:19 24.68837 -76.18476 4319 ft 147 kts 178°
2026-05-08 16:19 24.67819 -76.18385 4506 ft 147 kts 177°
2026-05-08 16:19 24.66802 -76.18310 4708 ft 147 kts 178°
2026-05-08 16:20 24.65783 -76.18236 4902 ft 147 kts 177°
2026-05-08 16:20 24.64762 -76.18168 5074 ft 150 kts 177°
2026-05-08 16:20 24.63703 -76.18103 5193 ft 157 kts 178°
2026-05-08 16:20 24.62657 -76.18348 5307 ft 156 kts 211°
2026-05-08 16:21 24.61731 -76.18976 5438 ft 157 kts 213°
2026-05-08 16:21 24.60782 -76.19603 5497 ft 163 kts 211°
2026-05-08 16:21 24.59757 -76.20205 5503 ft 170 kts 208°
2026-05-08 16:21 24.58691 -76.20800 5508 ft 173 kts 208°
2026-05-08 16:22 24.57606 -76.21401 5506 ft 176 kts 208°
2026-05-08 16:22 24.56883 -76.21802 5501 ft 177 kts 208°
2026-05-08 16:22 24.55426 -76.22609 5507 ft 178 kts 208°
2026-05-08 16:22 24.54307 -76.23230 5507 ft 178 kts 208°
2026-05-08 16:23 24.53200 -76.23845 5508 ft 179 kts 208°
2026-05-08 16:23 24.52087 -76.24462 5507 ft 179 kts 208°
2026-05-08 16:23 24.50990 -76.25070 5507 ft 179 kts 208°
2026-05-08 16:23 24.49875 -76.25687 5505 ft 180 kts 208°
2026-05-08 16:24 24.48760 -76.26306 5505 ft 180 kts 208°
2026-05-08 16:24 24.47645 -76.26924 5504 ft 180 kts 208°
2026-05-08 16:24 24.46530 -76.27541 5505 ft 179 kts 207°
2026-05-08 16:24 24.45418 -76.28157 5498 ft 179 kts 208°
2026-05-08 16:25 24.44302 -76.28775 5503 ft 180 kts 207°
2026-05-08 16:25 24.43187 -76.29393 5502 ft 180 kts 208°
2026-05-08 16:25 24.42069 -76.30011 5502 ft 180 kts 208°
2026-05-08 16:25 24.40953 -76.30629 5502 ft 179 kts 208°
2026-05-08 16:26 24.39854 -76.31237 5498 ft 179 kts 208°
2026-05-08 16:26 24.38733 -76.31858 5433 ft 183 kts 207°
2026-05-08 16:26 24.37591 -76.32490 5280 ft 185 kts 207°
2026-05-08 16:26 24.36444 -76.33149 5113 ft 187 kts 211°
2026-05-08 16:27 24.35326 -76.33891 4948 ft 188 kts 212°
2026-05-08 16:27 24.34207 -76.34642 4780 ft 189 kts 213°
2026-05-08 16:27 24.33093 -76.35397 4607 ft 187 kts 212°
2026-05-08 16:27 24.31990 -76.36148 4434 ft 186 kts 213°
2026-05-08 16:28 24.30894 -76.36896 4262 ft 185 kts 213°
2026-05-08 16:28 24.30171 -76.37390 4144 ft 184 kts 212°
2026-05-08 16:28 24.28734 -76.38376 3924 ft 184 kts 213°
2026-05-08 16:28 24.27651 -76.39119 3760 ft 183 kts 212°
2026-05-08 16:29 24.26579 -76.39860 3613 ft 182 kts 213°
2026-05-08 16:29 24.25515 -76.40599 3469 ft 181 kts 213°
2026-05-08 16:29 24.24457 -76.41337 3326 ft 180 kts 213°
2026-05-08 16:29 24.23405 -76.42073 3180 ft 179 kts 213°
2026-05-08 16:30 24.22354 -76.42810 3034 ft 179 kts 213°
2026-05-08 16:30 24.21662 -76.43298 2938 ft 178 kts 213°
2026-05-08 16:30 24.20626 -76.44041 2793 ft 177 kts 214°
2026-05-08 16:30 24.19631 -76.44837 2649 ft 177 kts 219°
2026-05-08 16:31 24.18406 -76.46014 2424 ft 178 kts 227°
2026-05-08 16:31 24.17591 -76.47036 2244 ft 176 kts 227°
2026-05-08 16:31 24.16599 -76.47740 2150 ft 170 kts 196°
2026-05-08 16:31 24.15456 -76.47673 2089 ft 167 kts 156°
2026-05-08 16:32 24.14871 -76.47119 2010 ft 173 kts 126°
2026-05-08 16:32 24.14440 -76.45887 1913 ft 175 kts 106°
2026-05-08 16:32 24.14115 -76.44612 1806 ft 175 kts 108°
2026-05-08 16:32 24.13660 -76.43383 1721 ft 173 kts 122°
2026-05-08 16:33 24.12839 -76.42424 1564 ft 175 kts 146°
2026-05-08 16:33 24.11420 -76.41591 1394 ft 173 kts 154°
2026-05-08 16:33 24.10664 -76.41287 1334 ft 171 kts 163°
2026-05-08 16:33 24.09562 -76.40841 1312 ft 166 kts 160°
2026-05-08 16:34 24.08508 -76.40333 1240 ft 167 kts 152°
2026-05-08 16:34 24.07518 -76.39694 1128 ft 168 kts 151°
2026-05-08 16:34 24.06458 -76.39145 1004 ft 167 kts 156°
2026-05-08 16:34 24.05442 -76.38574 1001 ft 163 kts 150°
2026-05-08 16:35 24.04476 -76.37927 1004 ft 163 kts 148°
2026-05-08 16:35 24.03517 -76.37254 1005 ft 164 kts 148°
2026-05-08 16:35 24.02560 -76.36577 1002 ft 163 kts 148°
2026-05-08 16:35 24.01596 -76.35921 1004 ft 164 kts 152°
2026-05-08 16:36 24.00567 -76.35375 1004 ft 166 kts 155°
2026-05-08 16:36 23.99526 -76.34827 1005 ft 167 kts 155°
2026-05-08 16:36 23.98482 -76.34275 1002 ft 167 kts 155°
2026-05-08 16:36 23.97451 -76.33734 1003 ft 167 kts 155°
2026-05-08 16:37 23.96406 -76.33186 1004 ft 167 kts 155°
2026-05-08 16:37 23.95377 -76.32598 1002 ft 167 kts 150°
2026-05-08 16:37 23.94396 -76.31922 1003 ft 166 kts 148°
2026-05-08 16:37 23.93426 -76.31235 1003 ft 166 kts 147°
2026-05-08 16:38 23.92456 -76.30543 1004 ft 166 kts 146°
2026-05-08 16:38 23.91532 -76.29774 1003 ft 167 kts 143°
2026-05-08 16:38 23.90622 -76.28984 1001 ft 167 kts 142°
2026-05-08 16:38 23.89736 -76.28165 1001 ft 167 kts 140°
2026-05-08 16:39 23.88858 -76.27330 999 ft 168 kts 140°
2026-05-08 16:39 23.87975 -76.26490 1002 ft 168 kts 140°
2026-05-08 16:39 23.87120 -76.25606 999 ft 170 kts 133°
2026-05-08 16:39 23.86340 -76.24642 997 ft 168 kts 133°
2026-05-08 16:40 23.85566 -76.23693 996 ft 167 kts 133°
2026-05-08 16:40 23.84806 -76.22761 994 ft 166 kts 133°
2026-05-08 16:40 23.84038 -76.21819 992 ft 165 kts 133°
2026-05-08 16:40 23.83280 -76.20883 993 ft 164 kts 132°
2026-05-08 16:41 23.82518 -76.19951 993 ft 164 kts 133°
2026-05-08 16:41 23.81758 -76.19019 989 ft 164 kts 133°
2026-05-08 16:41 23.81006 -76.18088 992 ft 163 kts 131°
2026-05-08 16:42 23.79635 -76.16091 993 ft 165 kts 127°
2026-05-08 16:42 23.78957 -76.15078 991 ft 165 kts 127°
2026-05-08 16:42 23.78337 -76.14063 983 ft 162 kts 119°
2026-05-08 16:42 23.77901 -76.12935 1010 ft 161 kts 112°
2026-05-08 16:43 23.77475 -76.11810 1029 ft 160 kts 117°
2026-05-08 16:43 23.76912 -76.10758 1036 ft 161 kts 123°
2026-05-08 16:43 23.76310 -76.09724 1054 ft 161 kts 124°
2026-05-08 16:43 23.75665 -76.08722 1064 ft 162 kts 127°
2026-05-08 16:44 23.74998 -76.07738 1064 ft 161 kts 128°
2026-05-08 16:44 23.74345 -76.06754 1059 ft 159 kts 128°
2026-05-08 16:44 23.73687 -76.05766 1028 ft 162 kts 127°
2026-05-08 16:44 23.73030 -76.04783 1047 ft 163 kts 127°
2026-05-08 16:45 23.72374 -76.03777 1064 ft 162 kts 126°
2026-05-08 16:45 23.71735 -76.02758 1059 ft 163 kts 126°
2026-05-08 16:45 23.71089 -76.01747 1092 ft 161 kts 127°
2026-05-08 16:45 23.70411 -76.00777 1144 ft 160 kts 131°
2026-05-08 16:46 23.69659 -75.99885 1115 ft 160 kts 134°
2026-05-08 16:46 23.68893 -75.99004 1099 ft 159 kts 135°
2026-05-08 16:46 23.68120 -75.98129 1083 ft 161 kts 134°
2026-05-08 16:46 23.67345 -75.97238 1059 ft 163 kts 133°
2026-05-08 16:47 23.66587 -75.96329 1061 ft 160 kts 134°
2026-05-08 16:47 23.65833 -75.95484 1094 ft 156 kts 135°
2026-05-08 16:47 23.65075 -75.94632 1100 ft 157 kts 135°
2026-05-08 16:47 23.64309 -75.93779 1073 ft 159 kts 135°
2026-05-08 16:48 23.63539 -75.92919 1125 ft 156 kts 135°
2026-05-08 16:48 23.62768 -75.92082 1127 ft 158 kts 136°
2026-05-08 16:48 23.61966 -75.91236 1140 ft 162 kts 137°
2026-05-08 16:48 23.61133 -75.90390 1127 ft 165 kts 139°
2026-05-08 16:49 23.60286 -75.89548 1128 ft 163 kts 138°
2026-05-08 16:49 23.59487 -75.88731 1137 ft 156 kts 138°
2026-05-08 16:49 23.58669 -75.87984 1162 ft 147 kts 152°
2026-05-08 16:49 23.57737 -75.87733 1101 ft 136 kts 180°
2026-05-08 16:50 23.56844 -75.87823 1024 ft 121 kts 186°
2026-05-08 16:50 23.56033 -75.87956 916 ft 115 kts 189°
2026-05-08 16:50 23.55286 -75.88078 848 ft 106 kts 179°
2026-05-08 16:50 23.54626 -75.87817 797 ft 100 kts 144°
2026-05-08 16:51 23.54248 -75.87220 704 ft 95 kts 114°
2026-05-08 16:51 23.54082 -75.86528 581 ft 98 kts 88°
2026-05-08 16:51 23.54419 -75.85910 445 ft 97 kts 37°
2026-05-08 16:51 23.55031 -75.85666 303 ft 93 kts 357°
2026-05-08 16:52 23.55467 -75.86123 183 ft 95 kts 295°
2026-05-08 16:52 23.55770 -75.86769 38 ft 94 kts 295°
2026-05-08 16:52 23.56039 -75.87329 12 ft 69 kts 295°
2026-05-08 16:52 23.56182 -75.87636 12 ft 24 kts 294°
2026-05-08 16:53 23.56171 -75.87595 13 ft 18 kts 118°
2026-05-08 16:53 23.56144 -75.87487 12 ft 14 kts 59°
2026-05-08 16:53 23.56226 -75.87433 11 ft 14 kts 27°
2026-05-08 16:54 23.56310 -75.87385 11 ft 13 kts 32°
2026-05-08 16:54 23.56355 -75.87402 11 ft 9 kts 293°
2026-05-08 16:54 23.56342 -75.87435 11 ft 1 kts 219°